ZHONGXING-6B

Last updated on Thu Nov 21 2024 00:02:40 GMT+0000 (Coordinated Universal Time)

1 31800U 07031A 24325.56488543 -.00000360 00000+0 00000+0 0 9990 2 31800 0.9154 88.8224 0004964 161.9817 127.9268 1.00272694 63679
UTC large
Height (km)
Speed (km/s)
/
Latitude / Longitude
Inclination (degrees)
Orbital Period (minutes)
Azimuth
Elevation
Range (km)
Doppler Factor

Next 0 passes for location: London (51.5072 / 0.1276)

Sorry there are no passes over London.